Hurricane Symbol View the latest observations near East Pacific Tropical Storm Bud.

Station 46081 (LLNR 25647) - Western Prince William Sound Image indicating link to RSS feed of recent meteorological observations for station 46081


Conditions at 46081 as of
(4:50 pm AKDT on 07/24/2024)
0050 GMT on 07/25/2024:
     

Click on the graph icon in the table below to see a time series plot of the last five days of that observation.

5-day plot - Wind Direction Wind Direction (WDIR):ESE ( 120 deg true )
5-day plot - Wind Speed Wind Speed (WSPD): 15.5 kts
5-day plot - Wind Gust Wind Gust (GST): 17.5 kts
5-day plot - Wave Height Wave Height (WVHT): 0.7 ft
5-day plot - Average Wave Period Average Period (APD): 2.5 sec
5-day plot - Atmospheric Pressure Atmospheric Pressure (PRES):30.03 in
5-day plot - Pressure Tendency Pressure Tendency (PTDY):+0.00 in ( Steady )
5-day plot - Air Temperature Air Temperature (ATMP): 58.1 °F
5-day plot - Dew Point Dew Point (DEWP): 57.2 °F
5-day plot - Wind Speed at 10 Meters Wind Speed at 10 meters (WSPD10M): 15.5 kts
5-day plot - Wind Speed at 20 Meters Wind Speed at 20 meters (WSPD20M): 17.5 kts
5-day plot -  Wind Speed, Wind Gust and Atmospheric Pressure Combined plot of Wind Speed, Gust, and Air Pressure
Continuous Winds
TIME
(AKDT)
5-day plot - Wind Direction WDIR 5-day plot - Wind Speed WSPD
4:50 pmESE ( 118 deg ) 15.2 kts
4:40 pmESE ( 119 deg ) 15.2 kts
4:30 pmESE ( 121 deg ) 14.2 kts
4:20 pmESE ( 119 deg ) 13.4 kts
4:10 pmESE ( 118 deg ) 13.4 kts
4:00 pmESE ( 117 deg ) 13.0 kts
 
Supplemental Measurements
Highest 1-minute Wind Speed
Time (AKDT)5-day plot - 1-Minute Wind Speed WSPD 5-day plot - 1-Minute Wind Direction WDIR
4:38 pm 15.5 kts-
Peak gust during the measurement hour
TIME
(AKDT)
5-day plot - Gust Direction GDR 5-day plot - Gust Speed GST
4:33 pmESE ( 120 deg ) 17.5 kts
Previous observations
TIME
(AKDT)
5-day plot - Wind Direction
WDIR
 
5-day plot - Wind Speed
WSPD
kts
5-day plot - Wind Gust
GST
kts
5-day plot - Wave Height
WVHT
ft
5-day plot - Dominant Wave Period
DPD
sec
5-day plot - Average Wave Period
APD
sec
5-day plot - Mean Wave Direction
MWD
 
5-day plot - Atmospheric Pressure
PRES
in
5-day plot - Pressure Tendency
PTDY
in
5-day plot - Air Temperature
ATMP
°F
5-day plot - Water Temperature
WTMP
°F
5-day plot - Dew Point
DEWP
°F
5-day plot - Salinity
SAL
psu
5-day plot - Visibility
VIS
nmi
5-day plot - Tide (above MLLW)
TIDE
ft
2024-07-24 03:50 pmESE 13.6 15.5 0.7-2.5-30.03-0.01 58.3- 57.2---
2024-07-24 02:50 pmESE 9.7 9.7 0.3-2.3-30.03-0.01 58.3- 57.6---
2024-07-24 01:50 pmESE 9.7 9.7 0.3-3.6-30.04-0.01 57.9- 57.4---
2024-07-24 12:50 pmESE 1.9 3.9 0.3-3.0-30.05+0.00 57.9- 55.2---
2024-07-24 11:50 am NE 3.9 3.9 0.0-2.5-30.05+0.02 55.9- 52.5---
2024-07-24 10:50 am N 3.9 5.8 0.3-2.6-30.05+0.03 54.5- 51.6---
2024-07-24 09:50 am NE 3.9 5.8 0.3-2.4-30.04+0.04 55.0- 53.4---
2024-07-24 08:50 amESE 3.9 3.9 0.3-2.4-30.03+0.04 56.7- 55.9---
2024-07-24 07:50 am SE 7.8 9.7 0.3-2.4-30.02+0.04 57.6- 57.0---
2024-07-24 06:50 amESE 5.8 7.8 0.0-2.3-30.00+0.03 57.2- 55.8---
2024-07-24 05:50 am N 1.9 3.9 0.0-2.5-29.99+0.03 55.8- 54.3---
2024-07-24 04:50 am NE 1.9 3.9 0.0-2.6-29.98+0.02 56.3- 53.6---
2024-07-24 03:50 am S 3.9 3.9 0.0-2.7-29.97+0.02 58.1- 56.1---
2024-07-24 02:50 amSSE 1.9 1.9 0.0-2.7-29.96+0.02 56.8- 52.9---
2024-07-24 01:50 amENE 3.9 5.8 0.0-2.6-29.95+0.01 56.8- 52.5---
2024-07-24 12:50 amNNE 5.8 5.8 0.0-2.5-29.95+0.01 57.0- 51.3---
2024-07-23 11:50 pmNNE 5.8 7.8 0.0-2.5-29.95+0.02 57.2- 52.3---
2024-07-23 10:50 pm NE 5.8 9.7 0.3-2.4-29.94+0.01 58.1- 53.1---
2024-07-23 09:50 pmENE 3.9 7.8 0.3-2.7-29.93+0.00 63.3- 53.8---
2024-07-23 08:50 pm NW 3.9 9.7----29.93-0.01 62.6- 53.8---
2024-07-23 07:50 pmNNW 3.9 5.8 0.3-2.4-29.93-0.01 61.9- 53.8---
2024-07-23 06:50 pmNNE 3.9 7.8 0.3-2.5-29.93-0.01 59.4- 54.0---
2024-07-23 05:50 pm N 5.8 9.7 0.7-2.6-29.94-0.01 60.1- 53.4---
2024-07-23 04:50 pmNNW 7.8 11.7 0.7-2.7-29.94-0.03 61.3- 53.4---

Detailed Wave Summary
for 46081 as of
(5:00 pm AKDT on 07/24/2024)
0100 GMT on 07/25/2024:

These wave data are displayed in rounded times.

     

Click on the graph icon in the table below to see a time series plot of the last five days of that observation.

5-day plot - Significant Wave Height Significant Wave Height (WVHT): 0.7 ft
5-day plot - Average Wave Period Average Wave Period (APD): 2.5 sec
Previous observations
TIME
(AKDT)
5-day plot - Wave Height
WVHT
ft
5-day plot - Swell Height
SwH
ft
5-day plot - Swell Period
SwP
sec
5-day plot - Swell Direction
SwD
 
5-day plot - Wind Wave Height
WWH
ft
5-day plot - Wind Wave Period
WWP
sec
5-day plot - Wind Wave Direction
WWD
 
5-day plot - Wave Steepness
STEEPNESS
 
5-day plot - Average Wave Period
APD
sec
2024-07-24 04:00 pm 0.7------ N/A 2.5
2024-07-24 03:00 pm 0.3------ N/A 2.3
2024-07-24 02:00 pm 0.3------ N/A 3.6
2024-07-24 01:00 pm 0.3------ N/A 3.0
2024-07-24 12:00 pm 0.0------ N/A 2.5
2024-07-24 11:00 am 0.3------ N/A 2.6
2024-07-24 10:00 am 0.3------ N/A 2.4
2024-07-24 09:00 am 0.3------ N/A 2.4
2024-07-24 08:00 am 0.3------ N/A 2.4
2024-07-24 07:00 am 0.0------ N/A 2.3
2024-07-24 06:00 am 0.0------ N/A 2.5
2024-07-24 05:00 am 0.0------ N/A 2.6
2024-07-24 04:00 am 0.0------ N/A 2.7
2024-07-24 03:00 am 0.0------ N/A 2.7
2024-07-24 02:00 am 0.0------ N/A 2.6
2024-07-24 01:00 am 0.0------ N/A 2.5
2024-07-24 12:00 am 0.0------ N/A 2.5
2024-07-23 11:00 pm 0.3------ N/A 2.4
2024-07-23 10:00 pm 0.3------ N/A 2.7
2024-07-23 08:00 pm 0.3------ N/A 2.4
2024-07-23 07:00 pm 0.3------ N/A 2.5
2024-07-23 06:00 pm 0.7------ N/A 2.6
2024-07-23 05:00 pm 0.7------ N/A 2.7

Plot of wave energy versus frequency (and period)